WXM80 ListenWXM80 Stop

You find our weather info also at:

UK Metoffice

WeatherCloud

Weather Underground

Northeastern Weather Network

AWEKAS

Citizen Weather Observer Program (CWOP)

HAMweather, WeatherForYou, PWS Weather


Weather Underground History page Text

Daily Summary for June 9, 2016 Units:  English    Metric   Both
« Previous Day
Next Day »
Daily Weekly Monthly Yearly Custom
  High: Low: Average:
Temperature: 73.9 °F 54.7 °F 63.6 °F
Dew Point: 51.2 °F 40.1 °F 46.1 °F
Humidity: 72 % 33 % 55 %
Wind Speed: 11.5 mph 0.1 mph 5.7 mph
Wind Gust: 23.0 mph - -
Wind:- - West
Pressure: 29.88 in 29.73 in -
Precipitation: 0.00 in    
Historical Graphs
 
 
Tabular Data for June 9, 2016
Time Temperature Dew Point Pressure Wind Wind Speed Wind Gust Humidity Rainfall Rate (Hourly)
00:00 58.4 °F 47.9 °F 29.75 in West 6.4 mph 15.0 mph 68 % 0.00 in
00:06 58.4 °F 47.9 °F 29.75 in WNW 9.9 mph 13.0 mph 68 % 0.00 in
00:11 58.2 °F 47.3 °F 29.75 in WNW 8.4 mph 16.1 mph 67 % 0.00 in
00:16 58.2 °F 47.3 °F 29.75 in NW 5.2 mph 16.1 mph 67 % 0.00 in
00:21 58.1 °F 47.2 °F 29.75 in WNW 6.2 mph 11.5 mph 67 % 0.00 in
00:26 58.0 °F 47.5 °F 29.75 in NW 6.3 mph 11.5 mph 68 % 0.00 in
00:31 57.9 °F 47.4 °F 29.75 in NW 6.1 mph 15.0 mph 68 % 0.00 in
00:36 57.8 °F 47.7 °F 29.75 in WSW 8.3 mph 17.3 mph 69 % 0.00 in
00:41 57.8 °F 47.7 °F 29.75 in WNW 8.0 mph 20.0 mph 69 % 0.00 in
00:46 57.7 °F 48.0 °F 29.75 in West 5.2 mph 8.1 mph 70 % 0.00 in
00:57 57.5 °F 47.8 °F 29.75 in West 5.8 mph 18.4 mph 70 % 0.00 in
01:02 57.4 °F 47.3 °F 29.75 in WNW 6.7 mph 11.5 mph 69 % 0.00 in
01:07 57.3 °F 47.6 °F 29.75 in WNW 7.3 mph 13.8 mph 70 % 0.00 in
01:12 57.3 °F 47.2 °F 29.75 in West 7.8 mph 11.5 mph 69 % 0.00 in
01:17 57.4 °F 47.3 °F 29.75 in West 7.9 mph 19.6 mph 69 % 0.00 in
01:22 57.5 °F 47.4 °F 29.75 in West 4.7 mph 9.2 mph 69 % 0.00 in
01:27 57.6 °F 47.9 °F 29.75 in SW 8.6 mph 12.7 mph 70 % 0.00 in
01:32 57.6 °F 47.9 °F 29.75 in WSW 4.4 mph 10.4 mph 70 % 0.00 in
01:37 57.6 °F 47.9 °F 29.75 in West 4.3 mph 11.5 mph 70 % 0.00 in
01:42 57.6 °F 47.9 °F 29.75 in West 5.9 mph 9.2 mph 70 % 0.00 in
01:48 57.6 °F 48.3 °F 29.75 in West 6.8 mph 8.0 mph 71 % 0.00 in
01:53 57.5 °F 47.8 °F 29.75 in WSW 4.5 mph 11.5 mph 70 % 0.00 in
01:58 57.4 °F 47.7 °F 29.75 in West 4.2 mph 11.5 mph 70 % 0.00 in
02:03 57.4 °F 47.7 °F 29.75 in West 7.0 mph 15.0 mph 70 % 0.00 in
02:08 57.4 °F 47.7 °F 29.75 in West 2.7 mph 12.7 mph 70 % 0.00 in
02:13 57.3 °F 47.6 °F 29.75 in West 8.2 mph 13.8 mph 70 % 0.00 in
02:18 57.3 °F 47.2 °F 29.75 in WNW 5.1 mph 10.4 mph 69 % 0.00 in
02:23 57.2 °F 47.5 °F 29.75 in WNW 4.5 mph 6.9 mph 70 % 0.00 in
02:28 57.2 °F 47.5 °F 29.76 in WSW 9.1 mph 15.0 mph 70 % 0.00 in
02:33 57.1 °F 47.8 °F 29.75 in West 4.5 mph 9.2 mph 71 % 0.00 in
02:39 57.1 °F 47.8 °F 29.75 in WNW 4.3 mph 8.0 mph 71 % 0.00 in
02:44 57.0 °F 47.7 °F 29.75 in West 3.5 mph 9.2 mph 71 % 0.00 in
02:49 57.0 °F 47.3 °F 29.76 in NW 6.5 mph 12.7 mph 70 % 0.00 in
02:54 56.9 °F 46.8 °F 29.76 in WNW 2.8 mph 10.4 mph 69 % 0.00 in
02:59 57.0 °F 47.3 °F 29.76 in West 2.7 mph 10.4 mph 70 % 0.00 in
03:04 56.9 °F 46.8 °F 29.76 in WNW 2.6 mph 5.8 mph 69 % 0.00 in
03:09 56.9 °F 46.8 °F 29.77 in WNW 5.8 mph 9.2 mph 69 % 0.00 in
03:14 57.0 °F 47.3 °F 29.77 in NW 2.0 mph 6.9 mph 70 % 0.00 in
03:19 57.0 °F 46.9 °F 29.77 in NNW 4.9 mph 11.5 mph 69 % 0.00 in
03:24 56.9 °F 46.8 °F 29.77 in WSW 6.7 mph 11.5 mph 69 % 0.00 in
03:30 56.9 °F 46.8 °F 29.76 in West 7.5 mph 7.5 mph 69 % 0.00 in
03:35 56.9 °F 46.8 °F 29.77 in NW 6.1 mph 11.5 mph 69 % 0.00 in
03:40 56.8 °F 46.3 °F 29.77 in SW 5.9 mph 9.2 mph 68 % 0.00 in
03:45 56.8 °F 46.3 °F 29.76 in West 3.9 mph 10.4 mph 68 % 0.00 in
03:50 56.7 °F 46.6 °F 29.77 in NW 5.2 mph 8.1 mph 69 % 0.00 in
03:55 56.6 °F 46.2 °F 29.77 in WSW 3.5 mph 14.0 mph 68 % 0.00 in
04:00 56.6 °F 46.2 °F 29.76 in West 4.8 mph 9.2 mph 68 % 0.00 in
04:05 56.5 °F 46.4 °F 29.76 in West 2.9 mph 8.1 mph 69 % 0.00 in
04:10 56.5 °F 46.4 °F 29.76 in WNW 4.9 mph 11.5 mph 69 % 0.00 in
04:15 56.5 °F 46.4 °F 29.76 in SW 4.7 mph 8.0 mph 69 % 0.00 in
04:21 56.4 °F 46.4 °F 29.76 in WNW 7.6 mph 13.8 mph 69 % 0.00 in
04:26 56.2 °F 46.2 °F 29.76 in SW 6.3 mph 9.2 mph 69 % 0.00 in
04:31 56.1 °F 46.1 °F 29.76 in NW 4.7 mph 11.5 mph 69 % 0.00 in
04:36 56.0 °F 46.4 °F 29.76 in West 6.0 mph 13.0 mph 70 % 0.00 in
04:41 55.9 °F 46.6 °F 29.76 in WSW 4.9 mph 9.2 mph 71 % 0.00 in
04:46 55.8 °F 46.2 °F 29.76 in North 7.9 mph 17.3 mph 70 % 0.00 in
04:51 55.7 °F 46.8 °F 29.77 in WNW 6.0 mph 9.2 mph 72 % 0.00 in
04:56 55.5 °F 46.2 °F 29.76 in NNW 4.0 mph 10.4 mph 71 % 0.00 in
05:01 55.4 °F 46.2 °F 29.77 in West 6.1 mph 9.0 mph 71 % 0.00 in
05:06 55.3 °F 46.1 °F 29.77 in SSW 5.8 mph 6.0 mph 71 % 0.00 in
05:12 55.2 °F 46.0 °F 29.77 in WNW 2.9 mph 8.1 mph 71 % 0.00 in
05:17 55.1 °F 45.9 °F 29.78 in WNW 4.1 mph 15.0 mph 71 % 0.00 in
05:22 55.1 °F 45.9 °F 29.78 in WNW 4.3 mph 9.2 mph 71 % 0.00 in
05:27 55.0 °F 46.1 °F 29.78 in WSW 4.6 mph 6.9 mph 72 % 0.00 in
05:32 55.0 °F 46.1 °F 29.78 in WSW 4.5 mph 6.0 mph 72 % 0.00 in
05:37 54.9 °F 46.0 °F 29.78 in WNW 6.4 mph 11.5 mph 72 % 0.00 in
05:42 54.9 °F 46.0 °F 29.78 in WSW 3.8 mph 8.1 mph 72 % 0.00 in
05:47 54.9 °F 46.0 °F 29.79 in NNW 7.6 mph 13.0 mph 72 % 0.00 in
05:58 54.8 °F 45.2 °F 29.78 in WNW 3.1 mph 11.5 mph 70 % 0.00 in
06:03 54.8 °F 45.6 °F 29.78 in SW 3.9 mph 10.4 mph 71 % 0.00 in
06:08 54.7 °F 45.1 °F 29.78 in WNW 5.0 mph 5.8 mph 70 % 0.00 in
06:13 54.7 °F 45.5 °F 29.79 in WSW 3.1 mph 9.0 mph 71 % 0.00 in
06:18 54.7 °F 45.8 °F 29.78 in SW 5.5 mph 15.0 mph 72 % 0.00 in
06:28 55.0 °F 45.4 °F 29.78 in WSW 7.9 mph 13.8 mph 70 % 0.00 in
06:33 55.2 °F 45.6 °F 29.79 in West 6.6 mph 15.0 mph 70 % 0.00 in
06:38 55.4 °F 45.8 °F 29.79 in WSW 9.5 mph 15.0 mph 70 % 0.00 in
06:43 55.7 °F 45.7 °F 29.79 in SW 6.9 mph 6.9 mph 69 % 0.00 in
06:54 56.2 °F 46.2 °F 29.78 in WNW 4.7 mph 13.8 mph 69 % 0.00 in
06:59 56.5 °F 46.1 °F 29.78 in North 6.2 mph 15.0 mph 68 % 0.00 in
07:04 56.7 °F 46.3 °F 29.78 in NNW 6.3 mph 10.4 mph 68 % 0.00 in
07:09 56.9 °F 45.7 °F 29.78 in WSW 3.9 mph 11.5 mph 66 % 0.00 in
07:14 57.1 °F 46.2 °F 29.78 in WNW 6.2 mph 12.0 mph 67 % 0.00 in
07:19 57.3 °F 46.4 °F 29.78 in NW 2.5 mph 6.9 mph 67 % 0.00 in
07:24 57.5 °F 46.6 °F 29.78 in West 4.1 mph 6.9 mph 67 % 0.00 in
07:29 57.7 °F 46.8 °F 29.78 in SW 3.0 mph 11.5 mph 67 % 0.00 in
07:34 57.8 °F 46.1 °F 29.78 in SSW 6.5 mph 15.0 mph 65 % 0.00 in
07:40 57.8 °F 46.1 °F 29.78 in West 7.6 mph 8.1 mph 65 % 0.00 in
07:45 57.6 °F 46.3 °F 29.78 in WSW 6.4 mph 12.7 mph 66 % 0.00 in
07:50 57.5 °F 46.2 °F 29.78 in SW 6.3 mph 13.8 mph 66 % 0.00 in
07:55 57.4 °F 46.1 °F 29.78 in WNW 6.4 mph 11.5 mph 66 % 0.00 in
08:00 57.4 °F 46.1 °F 29.78 in NW 8.3 mph 14.0 mph 66 % 0.00 in
08:05 57.5 °F 46.2 °F 29.79 in West 7.8 mph 15.0 mph 66 % 0.00 in
08:10 57.6 °F 46.3 °F 29.79 in West 5.9 mph 12.7 mph 66 % 0.00 in
08:15 57.7 °F 47.2 °F 29.79 in WSW 1.7 mph 9.2 mph 68 % 0.00 in
08:20 57.8 °F 47.3 °F 29.79 in WSW 2.1 mph 4.0 mph 68 % 0.00 in
08:25 57.8 °F 46.5 °F 29.79 in West 7.1 mph 11.5 mph 66 % 0.00 in
08:31 57.9 °F 46.6 °F 29.80 in WSW 5.9 mph 11.5 mph 66 % 0.00 in
08:36 58.0 °F 46.3 °F 29.79 in SE 3.2 mph 10.4 mph 65 % 0.00 in
08:41 58.2 °F 46.5 °F 29.79 in WSW 3.9 mph 11.5 mph 65 % 0.00 in
08:46 58.3 °F 46.2 °F 29.80 in NW 6.3 mph 11.5 mph 64 % 0.00 in
08:51 58.4 °F 46.3 °F 29.80 in SW 4.7 mph 11.5 mph 64 % 0.00 in
08:56 58.6 °F 46.5 °F 29.79 in WSW 10.6 mph 18.4 mph 64 % 0.00 in
09:01 58.7 °F 47.0 °F 29.79 in NW 5.1 mph 11.5 mph 65 % 0.00 in
09:06 58.7 °F 46.5 °F 29.79 in WNW 6.9 mph 15.0 mph 64 % 0.00 in
09:11 58.8 °F 46.6 °F 29.79 in WSW 5.7 mph 12.7 mph 64 % 0.00 in
09:16 58.9 °F 46.7 °F 29.79 in West 5.6 mph 17.3 mph 64 % 0.00 in
09:22 59.1 °F 47.3 °F 29.79 in WSW 5.8 mph 10.4 mph 65 % 0.00 in
09:27 59.3 °F 47.5 °F 29.79 in WNW 6.6 mph 13.8 mph 65 % 0.00 in
09:32 59.6 °F 46.6 °F 29.78 in WNW 8.9 mph 15.0 mph 62 % 0.00 in
09:37 60.0 °F 47.4 °F 29.79 in NW 4.0 mph 10.4 mph 63 % 0.00 in
09:42 60.6 °F 47.5 °F 29.79 in NW 7.1 mph 16.1 mph 62 % 0.00 in
09:47 61.3 °F 48.2 °F 29.79 in West 6.2 mph 11.5 mph 62 % 0.00 in
09:52 62.1 °F 48.9 °F 29.79 in WNW 6.5 mph 15.0 mph 62 % 0.00 in
09:57 62.9 °F 49.2 °F 29.79 in West 6.5 mph 11.5 mph 61 % 0.00 in
10:02 63.4 °F 48.4 °F 29.79 in WNW 5.5 mph 11.5 mph 58 % 0.00 in
10:07 63.8 °F 48.7 °F 29.79 in WSW 7.8 mph 11.5 mph 58 % 0.00 in
10:18 64.3 °F 49.2 °F 29.79 in NW 4.8 mph 16.1 mph 58 % 0.00 in
10:23 64.7 °F 48.2 °F 29.79 in WSW 5.9 mph 13.8 mph 55 % 0.00 in
10:28 64.9 °F 48.8 °F 29.79 in WNW 6.3 mph 16.1 mph 56 % 0.00 in
10:33 65.2 °F 50.0 °F 29.79 in West 5.4 mph 12.7 mph 58 % 0.00 in
10:38 65.7 °F 49.1 °F 29.79 in WSW 9.6 mph 13.0 mph 55 % 0.00 in
10:43 65.8 °F 48.2 °F 29.79 in WNW 6.4 mph 15.0 mph 53 % 0.00 in
10:48 65.8 °F 49.2 °F 29.79 in WNW 6.3 mph 15.0 mph 55 % 0.00 in
10:53 66.2 °F 50.0 °F 29.79 in West 7.8 mph 11.5 mph 56 % 0.00 in
11:04 66.8 °F 50.6 °F 29.79 in West 2.8 mph 10.4 mph 56 % 0.00 in
11:09 67.2 °F 49.5 °F 29.78 in WNW 6.3 mph 12.7 mph 53 % 0.00 in
11:14 67.6 °F 49.9 °F 29.78 in WNW 4.6 mph 10.4 mph 53 % 0.00 in
11:19 68.0 °F 50.7 °F 29.78 in WNW 5.7 mph 12.0 mph 54 % 0.00 in
11:24 68.5 °F 49.7 °F 29.78 in SW 6.5 mph 11.5 mph 51 % 0.00 in
11:29 68.9 °F 51.1 °F 29.78 in WNW 6.6 mph 13.8 mph 53 % 0.00 in
11:34 69.1 °F 51.2 °F 29.78 in NW 5.0 mph 9.0 mph 53 % 0.00 in
11:39 69.2 °F 50.8 °F 29.78 in West 3.2 mph 10.4 mph 52 % 0.00 in
11:44 69.3 °F 49.3 °F 29.78 in West 6.5 mph 12.7 mph 49 % 0.00 in
11:49 69.3 °F 50.9 °F 29.78 in NW 4.3 mph 16.1 mph 52 % 0.00 in
11:55 69.3 °F 49.3 °F 29.78 in NW 7.0 mph 16.1 mph 49 % 0.00 in
12:00 69.3 °F 48.8 °F 29.78 in NW 7.3 mph 11.5 mph 48 % 0.00 in
12:05 69.5 °F 49.5 °F 29.78 in WNW 7.7 mph 16.1 mph 49 % 0.00 in
12:10 69.8 °F 49.8 °F 29.78 in WNW 8.5 mph 15.0 mph 49 % 0.00 in
12:20 69.8 °F 47.5 °F 29.77 in NW 8.3 mph 15.0 mph 45 % 0.00 in
12:25 69.8 °F 49.2 °F 29.77 in NW 7.0 mph 12.7 mph 48 % 0.00 in
12:30 70.1 °F 49.5 °F 29.77 in SW 7.8 mph 16.1 mph 48 % 0.00 in
12:35 70.6 °F 49.4 °F 29.77 in NW 5.6 mph 10.4 mph 47 % 0.00 in
12:46 70.7 °F 47.7 °F 29.77 in West 4.1 mph 12.0 mph 44 % 0.00 in
12:51 70.8 °F 47.8 °F 29.77 in WNW 10.9 mph 16.1 mph 44 % 0.00 in
12:56 70.9 °F 49.7 °F 29.77 in West 5.2 mph 11.5 mph 47 % 0.00 in
13:01 71.0 °F 50.3 °F 29.77 in West 5.0 mph 14.0 mph 48 % 0.00 in
13:06 71.1 °F 48.1 °F 29.77 in ESE 4.8 mph 9.2 mph 44 % 0.00 in
13:11 71.2 °F 48.2 °F 29.77 in WNW 7.1 mph 12.7 mph 44 % 0.00 in
13:16 71.3 °F 48.3 °F 29.76 in West 5.3 mph 10.4 mph 44 % 0.00 in
13:21 71.4 °F 48.9 °F 29.76 in WSW 5.1 mph 12.7 mph 45 % 0.00 in
13:26 71.5 °F 47.2 °F 29.76 in WNW 5.9 mph 18.4 mph 42 % 0.00 in
13:31 71.6 °F 47.3 °F 29.76 in WNW 5.0 mph 10.4 mph 42 % 0.00 in
13:37 71.7 °F 46.1 °F 29.76 in NNW 8.1 mph 18.4 mph 40 % 0.00 in
13:42 71.7 °F 49.8 °F 29.76 in West 6.5 mph 13.0 mph 46 % 0.00 in
13:47 71.8 °F 46.2 °F 29.75 in West 9.7 mph 17.3 mph 40 % 0.00 in
13:52 71.9 °F 46.3 °F 29.75 in WNW 7.6 mph 12.7 mph 40 % 0.00 in
13:57 72.0 °F 47.0 °F 29.75 in NNW 7.4 mph 17.0 mph 41 % 0.00 in
14:02 72.2 °F 46.5 °F 29.75 in WNW 6.9 mph 16.1 mph 40 % 0.00 in
14:07 72.5 °F 48.1 °F 29.75 in SW 6.7 mph 11.5 mph 42 % 0.00 in
14:12 72.7 °F 47.0 °F 29.75 in NW 7.3 mph 14.0 mph 40 % 0.00 in
14:17 72.8 °F 47.1 °F 29.74 in WSW 8.6 mph 11.5 mph 40 % 0.00 in
14:22 73.0 °F 46.6 °F 29.74 in West 8.9 mph 11.5 mph 39 % 0.00 in
14:28 73.0 °F 48.5 °F 29.74 in WNW 7.8 mph 16.0 mph 42 % 0.00 in
14:33 73.0 °F 47.2 °F 29.74 in NW 6.8 mph 17.3 mph 40 % 0.00 in
14:38 73.3 °F 49.4 °F 29.74 in WNW 4.8 mph 14.0 mph 43 % 0.00 in
14:43 73.5 °F 50.9 °F 29.74 in NW 6.5 mph 17.3 mph 45 % 0.00 in
14:48 73.6 °F 45.7 °F 29.74 in WNW 9.9 mph 16.1 mph 37 % 0.00 in
14:53 73.5 °F 46.3 °F 29.74 in NW 10.1 mph 19.6 mph 38 % 0.00 in
14:58 73.5 °F 47.0 °F 29.74 in WNW 6.7 mph 11.5 mph 39 % 0.00 in
15:03 73.5 °F 46.3 °F 29.74 in West 6.2 mph 11.5 mph 38 % 0.00 in
15:08 73.4 °F 45.5 °F 29.74 in South 5.3 mph 13.8 mph 37 % 0.00 in
15:13 73.5 °F 44.9 °F 29.74 in WNW 11.5 mph 19.6 mph 36 % 0.00 in
15:19 73.5 °F 47.0 °F 29.74 in NNW 5.9 mph 12.7 mph 39 % 0.00 in
15:24 73.7 °F 47.9 °F 29.74 in West 6.9 mph 16.1 mph 40 % 0.00 in
15:29 73.9 °F 48.1 °F 29.74 in WSW 6.8 mph 15.0 mph 40 % 0.00 in
15:34 73.9 °F 46.0 °F 29.74 in NNW 6.7 mph 17.3 mph 37 % 0.00 in
15:39 73.8 °F 45.9 °F 29.74 in WNW 6.6 mph 13.8 mph 37 % 0.00 in
15:44 73.6 °F 46.4 °F 29.74 in West 8.8 mph 14.0 mph 38 % 0.00 in
15:54 73.5 °F 44.2 °F 29.74 in WNW 5.3 mph 11.5 mph 35 % 0.00 in
15:59 73.6 °F 44.2 °F 29.74 in WNW 9.0 mph 18.4 mph 35 % 0.00 in
16:04 73.4 °F 44.1 °F 29.73 in NW 8.4 mph 19.6 mph 35 % 0.00 in
16:10 73.4 °F 44.1 °F 29.73 in WNW 9.8 mph 15.0 mph 35 % 0.00 in
16:15 73.3 °F 44.7 °F 29.73 in WSW 7.4 mph 16.0 mph 36 % 0.00 in
16:20 73.3 °F 44.0 °F 29.74 in NNE 11.3 mph 17.3 mph 35 % 0.00 in
16:25 73.0 °F 43.7 °F 29.73 in SSE 9.6 mph 18.4 mph 35 % 0.00 in
16:30 72.8 °F 42.0 °F 29.73 in NW 10.2 mph 23.0 mph 33 % 0.00 in
16:35 72.5 °F 44.0 °F 29.73 in WNW 9.2 mph 16.1 mph 36 % 0.00 in
16:40 72.2 °F 43.8 °F 29.73 in NW 6.1 mph 19.6 mph 36 % 0.00 in
16:45 72.1 °F 44.4 °F 29.73 in NW 9.1 mph 16.0 mph 37 % 0.00 in
16:50 72.0 °F 43.6 °F 29.73 in NW 5.3 mph 11.5 mph 36 % 0.00 in
16:55 71.9 °F 42.8 °F 29.74 in NW 8.6 mph 15.0 mph 35 % 0.00 in
17:01 71.7 °F 42.6 °F 29.73 in West 8.0 mph 18.4 mph 35 % 0.00 in
17:06 71.7 °F 44.0 °F 29.74 in West 4.9 mph 12.7 mph 37 % 0.00 in
17:11 71.5 °F 43.1 °F 29.74 in WNW 7.4 mph 21.9 mph 36 % 0.00 in
17:16 71.3 °F 43.7 °F 29.73 in WNW 6.6 mph 11.5 mph 37 % 0.00 in
17:21 71.2 °F 44.3 °F 29.74 in WNW 5.6 mph 11.5 mph 38 % 0.00 in
17:26 71.1 °F 44.2 °F 29.73 in WNW 8.1 mph 13.8 mph 38 % 0.00 in
17:31 70.9 °F 42.6 °F 29.74 in West 6.5 mph 13.8 mph 36 % 0.00 in
17:41 70.6 °F 42.3 °F 29.74 in WNW 8.8 mph 19.6 mph 36 % 0.00 in
17:52 70.3 °F 45.5 °F 29.74 in West 8.7 mph 10.0 mph 41 % 0.00 in
17:57 70.1 °F 43.3 °F 29.74 in NNW 7.2 mph 15.0 mph 38 % 0.00 in
18:02 69.9 °F 44.5 °F 29.74 in NW 5.5 mph 17.0 mph 40 % 0.00 in
18:07 69.7 °F 43.6 °F 29.74 in NNE 6.2 mph 12.0 mph 39 % 0.00 in
18:12 69.6 °F 42.9 °F 29.74 in WNW 5.6 mph 13.8 mph 38 % 0.00 in
18:17 69.5 °F 42.8 °F 29.74 in NW 8.2 mph 16.1 mph 38 % 0.00 in
18:22 69.5 °F 42.8 °F 29.74 in West 9.3 mph 16.1 mph 38 % 0.00 in
18:27 69.5 °F 42.1 °F 29.75 in North 7.8 mph 11.5 mph 37 % 0.00 in
18:32 69.4 °F 42.0 °F 29.75 in WNW 4.7 mph 12.7 mph 37 % 0.00 in
18:38 69.4 °F 42.0 °F 29.75 in West 8.2 mph 18.0 mph 37 % 0.00 in
18:43 69.3 °F 41.9 °F 29.75 in SW 9.8 mph 16.1 mph 37 % 0.00 in
18:48 69.2 °F 42.5 °F 29.75 in West 7.5 mph 13.8 mph 38 % 0.00 in
18:53 69.1 °F 42.4 °F 29.76 in West 3.6 mph 10.0 mph 38 % 0.00 in
18:58 69.0 °F 42.3 °F 29.76 in NW 6.0 mph 10.4 mph 38 % 0.00 in
19:08 68.8 °F 44.1 °F 29.76 in West 6.9 mph 16.1 mph 41 % 0.00 in
19:18 68.5 °F 44.5 °F 29.76 in West 5.8 mph 15.0 mph 42 % 0.00 in
19:23 68.4 °F 43.8 °F 29.77 in WNW 6.2 mph 11.5 mph 41 % 0.00 in
19:29 68.2 °F 42.9 °F 29.77 in West 4.6 mph 12.7 mph 40 % 0.00 in
19:39 67.9 °F 44.6 °F 29.77 in NW 4.1 mph 8.1 mph 43 % 0.00 in
19:44 67.7 °F 45.6 °F 29.78 in WNW 2.2 mph 4.0 mph 45 % 0.00 in
19:49 67.4 °F 44.1 °F 29.78 in WNW 4.6 mph 9.2 mph 43 % 0.00 in
19:54 67.2 °F 44.5 °F 29.78 in North 4.0 mph 8.1 mph 44 % 0.00 in
19:59 66.9 °F 44.3 °F 29.78 in WNW 6.0 mph 11.5 mph 44 % 0.00 in
20:04 66.7 °F 44.1 °F 29.79 in NW 4.9 mph 10.4 mph 44 % 0.00 in
20:09 66.6 °F 45.2 °F 29.79 in NE 1.9 mph 3.5 mph 46 % 0.00 in
20:14 66.4 °F 45.0 °F 29.79 in West 6.7 mph 9.2 mph 46 % 0.00 in
20:30 65.9 °F 43.9 °F 29.80 in WNW 5.2 mph 8.1 mph 45 % 0.00 in
20:35 65.8 °F 42.7 °F 29.80 in WNW 4.4 mph 11.5 mph 43 % 0.00 in
20:40 65.7 °F 42.6 °F 29.80 in WNW 4.1 mph 10.0 mph 43 % 0.00 in
20:45 65.6 °F 44.8 °F 29.80 in WSW 3.2 mph 10.4 mph 47 % 0.00 in
20:55 65.4 °F 44.6 °F 29.80 in WNW 1.5 mph 9.2 mph 47 % 0.00 in
21:00 65.4 °F 44.6 °F 29.80 in WSW 4.2 mph 8.1 mph 47 % 0.00 in
21:05 65.2 °F 45.0 °F 29.81 in NNW 2.4 mph 8.1 mph 48 % 0.00 in
21:11 65.1 °F 45.5 °F 29.81 in WNW 5.7 mph 9.0 mph 49 % 0.00 in
21:16 65.0 °F 44.8 °F 29.81 in NW 3.7 mph 6.9 mph 48 % 0.00 in
21:21 64.8 °F 46.2 °F 29.82 in WNW 2.1 mph 4.6 mph 51 % 0.00 in
21:26 64.7 °F 46.1 °F 29.82 in WNW 3.5 mph 5.8 mph 51 % 0.00 in
21:31 64.4 °F 43.2 °F 29.82 in NW 4.5 mph 10.4 mph 46 % 0.00 in
21:36 64.3 °F 41.9 °F 29.83 in West 3.1 mph 9.0 mph 44 % 0.00 in
21:41 64.2 °F 42.4 °F 29.83 in WNW 3.5 mph 8.1 mph 45 % 0.00 in
21:46 64.1 °F 43.4 °F 29.83 in South 3.8 mph 9.2 mph 47 % 0.00 in
21:51 64.0 °F 43.4 °F 29.83 in NNW 3.6 mph 9.2 mph 47 % 0.00 in
21:56 63.9 °F 41.5 °F 29.84 in NW 3.5 mph 10.0 mph 44 % 0.00 in
22:02 63.7 °F 40.8 °F 29.84 in West 4.9 mph 11.5 mph 43 % 0.00 in
22:07 63.7 °F 41.4 °F 29.84 in NNW 4.3 mph 10.4 mph 44 % 0.00 in
22:12 63.6 °F 40.1 °F 29.85 in WNW 1.4 mph 11.5 mph 42 % 0.00 in
22:17 63.6 °F 41.3 °F 29.85 in WNW 1.9 mph 4.6 mph 44 % 0.00 in
22:22 63.5 °F 41.8 °F 29.85 in NE 2.5 mph 5.8 mph 45 % 0.00 in
22:27 63.4 °F 42.2 °F 29.85 in NNW 4.1 mph 8.1 mph 46 % 0.00 in
22:32 63.2 °F 42.1 °F 29.86 in WNW 3.0 mph 7.0 mph 46 % 0.00 in
22:37 63.1 °F 42.5 °F 29.86 in NNE 3.0 mph 8.1 mph 47 % 0.00 in
22:42 63.0 °F 43.5 °F 29.86 in NW 1.3 mph 3.5 mph 49 % 0.00 in
22:47 62.9 °F 44.0 °F 29.86 in South 0.7 mph 3.5 mph 50 % 0.00 in
22:53 62.7 °F 43.3 °F 29.86 in NW 2.5 mph 5.0 mph 49 % 0.00 in
22:58 62.5 °F 43.6 °F 29.86 in WNW 0.1 mph 3.5 mph 50 % 0.00 in
23:03 62.5 °F 44.1 °F 29.87 in WNW 1.3 mph 4.6 mph 51 % 0.00 in
23:08 62.3 °F 44.4 °F 29.87 in WNW 1.1 mph 4.0 mph 52 % 0.00 in
23:13 62.2 °F 44.9 °F 29.87 in NW 1.0 mph 3.5 mph 53 % 0.00 in
23:18 62.1 °F 44.3 °F 29.87 in WNW 0.3 mph 2.3 mph 52 % 0.00 in
23:23 62.0 °F 44.7 °F 29.87 in WNW 1.8 mph 3.5 mph 53 % 0.00 in
23:28 61.8 °F 44.5 °F 29.87 in NW 2.5 mph 6.9 mph 53 % 0.00 in
23:33 61.7 °F 44.9 °F 29.87 in WNW 2.7 mph 5.8 mph 54 % 0.00 in
23:38 61.6 °F 44.3 °F 29.87 in WNW 1.6 mph 6.9 mph 53 % 0.00 in
23:49 61.4 °F 43.1 °F 29.87 in WNW 3.0 mph 9.2 mph 51 % 0.00 in
23:54 61.3 °F 42.5 °F 29.88 in NW 0.6 mph 2.3 mph 50 % 0.00 in
23:59 61.2 °F 42.4 °F 29.88 in WNW 4.0 mph 6.9 mph 50 % 0.00 in
Crab Meadow Weather
Compliments of Weather Underground - 3 mb

Script developed by  Jim McMurry - jmcmurry@mwt.net Adapted for the template by  Wim van der Kuil - Leuven-Template.eu

Weather Terms: Flash Flood Warning - Flash flooding is occurring, imminent or highly likely. A flash flood is a flood that occurs within 6 hours of excessive rainfall and that poses a threat to life and/or property. Ice jams and dam failures can also cause flash floods. These warnings are issued on a county by county basis by the local Weather Forecast Office in Upton and are generally in effect for up to 6 hours.